Libertad

operational
NORAD ID: 31128 Int'l Des: 2007-012 Owner: USERAR Country: CO
LEOCIRCULARRETROGRADESSO

关于 Libertad

正在加载描述...

实时位置

正在加载3D地球...

即将过境

高度历史

Altitude vs Time

uPlot chart will show altitude changes over time

两行轨道根数

1 31128U 07012M 26071.41372669 .00002394 00000-0 44774-3 0 9996
2 31128 98.4287 39.1106 0085885 23.0069 337.4942 14.63520519 4113
Epoch: Mar 12, 2026 • Age: 36 hours

当前状态

高度 645.3 km
速度 7.57 km/s
星下点 58.92°N, 28.17°E
发射日期 Apr 17, 2007
运行时间 18.9 years
类型 other

技术详情

分类 Payload
质量 1.00 kg
干质量 1.00 kg
总质量 1.00 kg
长度 0.10 m
直径 0.10 m
跨度 0.20 m
形状 Box + Ant
制造商 USERAR
平台类型 Cubesat 1U
阶段状态 In Orbit
所有者/国家 USERAR/CO

大型星座

Loading constellations...